Simultaneous Nadir Overpasses (SNOs) Predictions

Prediction of SNOs between GOES-15 and METOP-A Satellite Orbit:

Table of predicted SNOs for the next 14.0 days since TLE Epoch: 9/20/2019
Index Date Time (GOES-15) GOES-15 Lat,Lon METOP-A Lat,Lon Distance(km) Time Diff (sec)
1 09/21/2019 17:30:48 -0.22,-127.94 -0.19,-128.20 28.32 80
2 09/24/2019 05:31:50 0.23,-127.80 0.23,-127.83 3.55 80
3 09/26/2019 17:30:04 -0.24,-127.76 -0.29,-127.44 36.06 80
4 09/29/2019 05:28:26 0.25,-127.61 0.34,-127.07 60.16 80
5 09/30/2019 17:44:39 -0.27,-127.59 0.66,-131.67 465.04 80
6 10/01/2019 17:26:41 -0.25,-127.55 -0.46,-126.69 98.47 80
7 10/03/2019 05:43:01 0.27,-127.44 -0.61,-131.30 440.97 80
8 10/04/2019 05:25:03 0.25,-127.39 0.51,-126.33 121.87 80




NCC Satellite Simultaneous Nadir Overpasses (SNOs) Prediction Service
